Location: Bukit Lungun
(2.6833°N, 113.9667°E)
Time: 13:07:39
(UTC+00:00)

Hubble Space Telescope - Pass Details

Date: 02 March 2021
Orbit: 535 x 539 km, 28.5° (Epoch: 13 April)

Event Time Altitude Azimuth Distance (km) Brightness Sun altitude
Exits shadow 21:30:33 29° 245° (WSW) 1,002 1.7 -16.6°
Maximum altitude 21:31:42 34° 210° (SSW) 883 1.6 -16.3°
Drops below altitude 10° 21:35:29 10° 144° (SE) 1,785 4.0 -15.4°
Sets 21:37:53 0° 135° (SE) 2,676 5.2 -14.8°
